Showing default

SNUSAT-2, 43782

Orbit data source: Space-Track

SNUSAT-2, 43782 is a payload satellite owned by SNU (KR) in SSO that was launched on Mon, 03 Dec 2018 UTC via an FALCON 9 launch vehicle from the Air Force Western Test Range (AFWTR). Payload-class satellites include a variety of spacecraft equipped with specific instruments for various scientific and technological missions. These include communications satellites like Starlink; space stations such as the ISS; scientific satellites like the Hubble; Earth observation satellites from companies like Planet Labs, Umbra, and HawkEye 360; GPS; miniature CubeSats for education and research; and military/defense satellites.

Loading next visibility...
Identifier
43782, 2018-099AA
Orbit
SSO
Country
Flag of KRKR / SKOR
Related business
Manufacturer
SNU
Mission
Operational Amateur Technology
Bus & Motor
CUBESAT 3U, Unknown motor
Mass
4 kg wet, 4 kg dry
Launch date (UTC)
2018-12-03 (8 years ago)
Launch vehicle
FALCON 9
Launch site
Air Force Western Test Range (AFWTR)
Object type
Payload
Rocket body
Debris
Shape & HBR
Box, 0.1 m
Radar Cross Section
0.035 m², Medium (>0.1 m² and < 1m²)

Expand to show TLE details & history
Last TLE update: 7 hours ago

TLE from 7 hours ago
0 SNUSAT-2
1 43782U 18099AA  26194.10483779  .00005423  00000-0  23873-3 0  9992
2 43782  97.4049 247.0942 0010017 195.0544 165.0396 15.22221251416974
Epoch: 2026-07-13T02:30Z
TLE epoch observation values (Epoch: 2026-07-13T02:30:57.985Z)
Latitude
0.00003°
Longitude
-81.64154°
Altitude
508.893 km
Speed
7.606 km/s
True Right ascension
16h 28m 22s
True Declination
0° 00' 00"
Sunlit
Object was in full shadow at epoch
Visualization orbit readout
Latitude
Unknown
Longitude
Unknown
Altitude
Unknown
Speed
Unknown
Apparent Right ascension
Unknown
Apparent Declination
Unknown
Sunlit
N/A
Visualization observer readout
Local Sidereal Time
22:22:06
Azimuth
Unknown
Elevation
Unknown
Doppler factor
Unknown
Orbital elements
Apogee altitude
502.991 km
Perigee altitude
489.219 km
Semi-major axis
6,874.242 km
Eccentricity
0.001
Inclination
97.4049°
RAAN
247.0942°
Arg. of periapsis
195.0544°
True anomaly
165.0692°
Mean anomaly
165.0396°
Eccentric anomaly
165.0544°
Mean motion
3.80808 °/min
Orbital period
94.54 mins
BSTAR
0.00023873
Loading maneuver chart data...
Computing Atmospheric mass density...
Loading historical data...
Loading historical data...
Loading historical data...
Loading historical data...
Loading historical data...
Loading historical data...
Loading historical data...

Documentation

Showing up to 5 results
|